Phoenix-Mesa Gateway Airport, AZ

12:40 AM MST on November 13, 2019 (GMT -0700)
Phoenix-Mesa Gateway Airport

Weather History for KIWA - October, 2019

Change the Weather History Date:

Saturday, October 19, 2019

  Actual Average Record
Temperature  
Mean Temperature 68 °F -  
Max Temperature 82 °F 83 °F 102 °F (2003)
Min Temperature 55 °F 58 °F 50 °F (2013)
Cooling Degree Days 4    
Growing Degree Days 18 (Base 50)    
Moisture  
Dew Point 29 °F    
Average Humidity 29    
Maximum Humidity 44    
Minimum Humidity 8    
Precipitation  
Precipitation 0.00 in - - ()
Sea Level Pressure  
Sea Level Pressure 29.88 in    
Wind  
Wind Speed 7 mph ()    
Max Wind Speed 10 mph    
Max Gust Speed -    
Visibility 10.0 miles    
Events      
Averages and records for this station are not official NWS values.
T = Trace of Precipitation, MM = Missing Value Source: Averaged Metar Reports

Daily Weather History Graph

Daily Weather History Graph

Search for Another Location

Airport or City:

Astronomy

Oct. 19, 2019 Rise Set
Actual Time 6:34 AM MST 5:48 PM MST
Civil Twilight 6:09 AM MST 6:13 PM MST
Nautical Twilight 5:40 AM MST 6:42 PM MST
Astronomical Twilight 5:11 AM MST 7:11 PM MST
Moon 10:13 PM MST (10/19) 11:57 AM MST (10/19)
Length of Visible Light 12h 04m
Length of Day
11h 14m
Waning Gibbous, 68% of the Moon is Illuminated
Oct 19
Waning Gibbous
Oct 21
Last Quarter
Oct 27
New
Nov 4
First Quarter
Nov 12
Full

Hourly Weather History & Observations

Time (MST) Temp. Dew Point Humidity Pressure Visibility Wind Dir Wind Speed Gust Speed Precip Events Conditions
12:15 AM 61.2 °F 32.7 °F 34% 29.87 in 10.0 mi East 9.2 mph - N/A   Clear
12:35 AM 60.3 °F 32.5 °F 35% 29.88 in 10.0 mi SE 6.9 mph - N/A   Clear
12:55 AM 60.1 °F 34.5 °F 38% 29.87 in 10.0 mi SE 6.9 mph - N/A   Clear
1:15 AM 59.5 °F 35.2 °F 40% 29.88 in 10.0 mi SE 9.2 mph - N/A   Clear
1:35 AM 59.0 °F 35.8 °F 42% 29.88 in 10.0 mi SE 8.1 mph - N/A   Clear
1:55 AM 59.0 °F 35.8 °F 42% 29.88 in 10.0 mi SE 6.9 mph - N/A   Clear
2:15 AM 58.8 °F 35.8 °F 42% 29.87 in 10.0 mi SE 8.1 mph - N/A   Clear
2:35 AM 58.6 °F 35.2 °F 42% 29.88 in 10.0 mi ESE 8.1 mph - N/A   Clear
2:55 AM 58.5 °F 35.2 °F 42% 29.88 in 10.0 mi ESE 8.1 mph - N/A   Clear
3:15 AM 58.3 °F 33.8 °F 40% 29.88 in 10.0 mi ESE 8.1 mph - N/A   Clear
3:35 AM 56.5 °F 32.9 °F 41% 29.88 in 10.0 mi ESE 8.1 mph - N/A   Clear
3:55 AM 57.0 °F 32.9 °F 40% 29.88 in 10.0 mi East 9.2 mph - N/A   Clear
4:15 AM 56.8 °F 32.5 °F 40% 29.88 in 10.0 mi East 10.4 mph - N/A   Clear
4:35 AM 57.6 °F 32.5 °F 39% 29.89 in 10.0 mi ESE 8.1 mph - N/A   Clear
4:50 AM 57.2 °F 32.0 °F 38% 29.89 in 10.0 mi ESE 8.1 mph - N/A   Clear
5:55 AM 55.4 °F 33.8 °F 44% 29.91 in 10.0 mi SE 8.1 mph - N/A   Clear
7:55 AM 59.0 °F 35.6 °F 42% 29.94 in 10.0 mi SE 8.1 mph - N/A   Clear
8:50 AM 66.2 °F 37.4 °F 35% 29.95 in 10.0 mi SE 5.8 mph - N/A   Clear
9:50 AM 73.4 °F 35.6 °F 25% 29.95 in 10.0 mi SSE 6.9 mph - N/A   Clear
10:50 AM 77.0 °F 30.2 °F 18% 29.94 in 10.0 mi SSE 3.5 mph - N/A   Clear
11:50 AM 78.8 °F 30.2 °F 17% 29.92 in 10.0 mi Variable 4.6 mph - N/A   Clear
12:50 PM 80.6 °F 30.2 °F 16% 29.90 in 10.0 mi WSW 5.8 mph - N/A   Clear
2:55 PM 82.4 °F 24.8 °F 12% 29.85 in 10.0 mi West 6.9 mph - N/A   Clear
3:55 PM 82.4 °F 14.0 °F 8% 29.83 in 10.0 mi SW 3.5 mph - N/A   Clear
4:50 PM 82.4 °F 14.0 °F 8% 29.83 in 10.0 mi West 8.1 mph - N/A   Clear
5:55 PM 78.8 °F 15.8 °F 9% 29.82 in 10.0 mi West 6.9 mph - N/A   Clear
6:55 PM 75.2 °F 17.6 °F 11% 29.84 in 10.0 mi NW 5.8 mph - N/A   Clear
7:55 PM 71.6 °F 21.2 °F 15% 29.83 in 10.0 mi Calm Calm - N/A   Clear
8:50 PM 68.0 °F 23.0 °F 18% 29.83 in 10.0 mi Variable 3.5 mph - N/A   Clear
9:50 PM 64.4 °F 17.6 °F 16% 29.85 in 10.0 mi ESE 6.9 mph - N/A   Clear
10:55 PM 60.8 °F 17.6 °F 19% 29.84 in 10.0 mi SE 8.1 mph - N/A   Clear
11:50 PM 59.0 °F 19.4 °F 22% 29.84 in 10.0 mi East 6.9 mph - N/A   Clear